Weather past 2 weeks in Saipan, Northern Mariana Islands

Now
78 °F

Passing clouds.


Feels Like: 80 °F
Forecast: 74 / 79 °F
Wind: 24 mph from East

Location: Saipan International Airport

Current Time: Mar 4, 2015 at 1:31:49 AM

Latest Report: Mar 4, 2015 at 12:54 AM


Visibility: 10 mi

Pressure: 29.97 "Hg

Humidity: 74%

Dew point: 69 °F

Location of SaipanLocation

Historic Weather in Saipan — Graph

°F

Saipan temperature yesterday

Maximum temperature yesterday: 86 °F (at 1:54 PM)
Minimum temperature yesterday: 75 °F (at 5:54 AM)
Average temperature yesterday: 80 °F

Past Weeks' High & Low Weather Summary

 TemperatureHumidityPressure
High86 °F (Feb 26, 1:54 PM)94% (Feb 28, 12:54 AM)30.09 "Hg (Feb 28, 12:54 AM)
Low70 °F (Feb 18, 6:54 AM)44% (Feb 22, 10:54 AM)29.87 "Hg (Feb 28, 3:24 AM)
Average78 °F69%29.98 "Hg
* Reported Feb 16 11:54 PM — Mar 3 11:54 PM, Saipan, Weather by CustomWeather, © 2015

Note: Actual official high and low records may vary slightly from our data, if they occured in-between our weather recording intervals... More about our weather records

Advertising

Saipan weather history for previous 24 hours

 ConditionsComfort  
Time TempWeatherWind HumidityBarometerVisibility
11:54 PM
Tue, Mar 3
78 °FPassing clouds.23 mph76%29.98 "Hg10 mi
10:54 PM78 °FPartly cloudy.17 mph76%29.99 "Hg10 mi
10:47 PM79 °FPartly cloudy.25 mph74%29.93 "Hg10 mi
10:34 PM79 °FMostly cloudy.18 mph74%29.93 "Hg10 mi
9:54 PM78 °FOvercast.22 mph79%29.99 "Hg10 mi
8:54 PM79 °FMostly cloudy.23 mph74%29.98 "Hg10 mi
7:54 PM79 °FPassing clouds.24 mph74%29.97 "Hg10 mi
6:54 PM79 °FPassing clouds.25 mph74%29.95 "Hg10 mi
5:54 PM80 °FPassing clouds.23 mph71%29.94 "Hg10 mi
4:54 PM83 °FScattered clouds.20 mph63%29.94 "Hg10 mi
3:54 PM84 °FBroken clouds.18 mph65%29.93 "Hg10 mi
2:54 PM85 °FScattered clouds.24 mph63%29.93 "Hg10 mi
1:54 PM86 °FScattered clouds.23 mph59%29.94 "Hg10 mi
12:54 PM85 °FRain. Broken clouds.20 mph63%29.96 "Hg10 mi
11:54 AM85 °FRain. Broken clouds.22 mph70%29.98 "Hg10 mi
10:54 AM83 °FPartly sunny.24 mph72%30.01 "Hg10 mi
10:40 AM79 °FLight rain. Partly sunny.16 mph79%29.95 "Hg5 mi
9:54 AM83 °FPassing clouds.24 mph68%30.01 "Hg10 mi
8:54 AM79 °FBroken clouds.14 mph82%30.01 "Hg10 mi
7:54 AM77 °FSunny.12 mph85%30.00 "Hg10 mi
6:54 AM75 °FPartly sunny.8 mph88%29.98 "Hg10 mi
5:54 AM75 °FPassing clouds.10 mph94%29.94 "Hg10 mi
4:54 AM77 °FPassing clouds.7 mph82%29.92 "Hg10 mi
3:54 AM77 °FPassing clouds.12 mph82%29.91 "Hg10 mi
2:54 AM77 °FPassing clouds.13 mph82%29.92 "Hg10 mi
1:54 AM77 °FPassing clouds.18 mph82%29.93 "Hg10 mi
Weather by CustomWeather, © 2015

See weather overviewHow to use our weather pages